Regional Weather Roundup
Issued by NWS Charleston, SC

Current Version | Previous Version | Text Only | Print | Product List | Glossary Off
Versions: 1 2 3 4 5 6 7 8 9 10 11 12 13 14 15 16 17 18 19 20 21 22 23 24 25 26 27 28 29 30 31 32 33 34 35 36 37 38 39 40 41 42 43 44 45 46 47 48 49 50

000
ASUS42 KCHS 042012
RWRCHS

REGIONAL WEATHER ROUNDUP
NATIONAL WEATHER SERVICE CHARLESTON SC
400 PM EDT TUE AUG 04 2015

NOTE: "FAIR" INDICATES FEW OR NO CLOUDS BELOW 12,000 FEET WITH NO
SIGNIFICANT WEATHER AND/OR OBSTRUCTIONS TO VISIBILITY.

NOT ALL STATIONS ARE QUALITY CONTROLLED BY THE NATIONAL
WEATHER SERVICE. USE DATA WITH CAUTION...ESPECIALLY
DEWPOINT OBSERVATIONS.

SCZ027-030-031-034>040-042>050-042100-
...SOUTHEAST SOUTH CAROLINA...

CITY           SKY/WX    TMP DP  RH WIND       PRES   REMARKS
N CHARLESTON   PTSUNNY   89  73  59 VRB3      29.95F HX  97
WATERFRONT PRK   N/A     85  78  79 SW7       29.93F HX  97
MOUNT PLEASANT FAIR      88  75  66 W6        29.95F HX  97
JOHNS ISLAND   MOCLDY    86  79  79 S9        29.95F HX  99
PINOPOLIS      NOT AVBL
MONCKS CORNER  FAIR      90  73  58 CALM      29.94F HX  98
SUMMERVILLE    FAIR      91  75  59 E5        29.95F HX 102
BEAUFORT MCAS  MOSUNNY   92  74  55 W5        29.96F HX 101
BEAUFORT ARPT  MOCLDY    91  77  62 W5        29.95F HX 105
HILTON HEAD IS MOSUNNY   84  75  74 SE9       29.98F HX  92
WALTERBORO     PTCLDY    93  72  49 NW5       29.95F HX 100
ALLENDALE      FAIR      97  64  34 CALM      29.93F HX  99

...SOUTHERN MIDLANDS AND PEE DEE...

CITY           SKY/WX    TMP DP  RH WIND       PRES   REMARKS
GEORGETOWN     NOT AVBL
KINGSTREE      NOT AVBL
ORANGEBURG     SUNNY     96  66  37 VRB3      29.93F HX  99
BARNWELL       FAIR      97  70  41 SW5       29.94F HX 103
AIKEN          FAIR      97  59  28 W8        29.98F HX  96
MANNING        RAIN      88  72  58 S6        29.93F HX  94
COLUMBIA       MOSUNNY   98  65  33 CALM      29.91F HX 101
SUMTER         MOSUNNY   97  67  37 VRB5      29.91F HX 101
FLORENCE       SUNNY     96  69  41 VRB5G22   29.91F HX 102
MYRTLE BEACH   PTSUNNY   86  73  66 NW10      29.94S HX  93
N MYRTLE BEACH PTSUNNY   84  76  76 NW10      29.91F HX  93

$$

GAZ063-065-086>088-099>101-113>116-118-119-134>141-150-042100-
...SOUTHEAST GEORGIA...

CITY           SKY/WX    TMP DP  RH WIND       PRES   REMARKS
SAVANNAH ARPT  MOSUNNY   93  71  48 VRB6      29.96F HX 100
HUNTER AAF     MOSUNNY   89  80  73 SE7       29.94F HX 107
FORT STEWART   MOSUNNY   93  73  52 N6        29.94F HX 102
STATESBORO     SUNNY     93  76  56 W3        29.95F HX 105
SYLVANIA       PTCLDY    94  77  57 SE3       29.96F HX 108
CLAXTON        NOT AVBL

...CSRA...CENTRAL AND FAR SOUTHEAST GEORGIA...

CITY           SKY/WX    TMP DP  RH WIND       PRES   REMARKS
THOMSON        MOSUNNY   99  71  40 SW6       29.99F HX 108
AUGUSTA-BUSH   PTSUNNY   98  65  33 NE8       29.92F HX 101
AUGUSTA-DANIEL SUNNY     97  63  32 VRB3      29.95F HX  98
SWAINSBORO     FAIR      99  70  39 CALM      29.96F HX 105
VIDALIA        SUNNY     95  66  38 CALM      29.96F HX  98
EASTMAN        MOCLDY    98  71  41 SE7       29.99S HX 106
HAZLEHURST     FAIR      92  73  52 SW3       29.97F HX 101
ALMA           MOSUNNY   91  75  59 SW7       29.97F HX 101
WAYCROSS       PTSUNNY   82  78  86 SW9       30.00R HX  91
JESUP          FAIR      97  72  44 CALM      29.97F HX 105
BAXLEY         PTSUNNY   93  70  46 CALM      29.97S HX  99
BRUNSWICK      PTSUNNY   90  77  66 SE13G20   29.99S HX 102
SAINT SIMONS   MOSUNNY   86  77  74 SE10      29.98F HX  97

$$

SCZ027-028-034-036>038-045-046-048>050-GAZ119-141-042100-
...LAKE AND SUPPLEMENTAL COASTAL OBSERVATIONS...

STATION/POSITION TIME  TEMP    WIND        PRES    WAVE   SWELL
                       AIR SEA DIR/SP/G            HT/PER HT/PER/DIR
                 (UTC) (F)     (DEG/KT/KT) (MB)    (FT/S) (FT/S/D)
UPR LAKE MARION  NOT AVBL
WINYAH BAY       NOT AVBL
LAKE MURRAY      1900   91     190/  9/ 11 1013.2F
ACE BASIN NERRS  NOT AVBL
FORT PULASKI     1900   86 85  150/  5/  9 1015.7F
SAPELO ISLAND    1900   90     160/  7     1015.0F

$$

ANZ835-935-AMZ111-154-330-350-352-354-370-450-454-472-042100-
...C-MAN AND BUOY OBSERVATIONS...

STATION/POSITION TIME  TEMP    WIND        PRES    WAVE   SWELL
                       AIR SEA DIR/SP/G            HT/PER HT/PER/DIR
                 (UTC) (F)     (DEG/KT/KT) (MB)    (FT/S) (FT/S/D)
BUOY 41004       1950   81 83  240/ 14/ 16 1013.9F   5/ 7   3/ 7
BUOY 41008       1950   82 85  220/  8/ 10 1015.7F   3/ 6   3/130/ 6
FOLLY BEACH CMAN 1900   83     200/ 12/ 13 1014.8F
CAPERS NEARSHORE 1908   82     210/ 14/ 17 1014.9F
FRIPP NEARSHORE  1900   86     230/  8/ 10 1014.8F


STATION/POSITION TIME  TEMP    WIND        PRES    WAVE   SWELL
                       AIR SEA DIR/SP/G            HT/PER HT/PER/DIR
                 (UTC) (F)     (DEG/KT/KT) (MB)    (FT/S) (FT/S/D)
5E ST. MARYS GA  1921      83                N/A     3/ 5
FRYING PAN BUOY  1950   81 81  220/ 14/ 17 1014.6S  10/ 9   8/190/ 9
BUOY 41025       1950   83 84  210/ 19/ 25 1016.0F   5/ 5   2/150/11
CAPE LOOKOUT NC  1900   81     180/ 19/ 21 1015.9F
BUOY 41002       1950   83 82  200/ 14/ 16 1018.8F   6/ 6   3/ 90/11
BUOY 41010       1920   83 85  210/  6/  8 1018.3F
ST AUGUSTINE FL  2000   79 78  240/  9/ 13 1017.2F


$$


USA.gov is the U.S. government's official web portal to all federal, state and local government web resources and services.